| time (UTC) | temp F | wind direction | speed MPH | gust MPH | rain 1hr in | rain 24hr in | rain mn in | humidity % | barometer mb |
| 20260904110010 | 57 | 61 | 0.0 | 3.0 | 0.00 | 0.00 | 0.00 | 56 | 1008.2 |
| 20260904104510 | 57 | 96 | 0.0 | 2.0 | 0.00 | 0.00 | 0.00 | 56 | 1008.3 |
| 20260904103008 | 57 | 94 | 0.0 | 2.0 | 0.00 | 0.00 | 0.00 | 54 | 1008.5 |
| 20260904101506 | 57 | 311 | 0.0 | 0.0 | 0.00 | 0.00 | 0.00 | 54 | 1008.6 |
| 20260904100004 | 57 | 115 | 0.0 | 0.0 | 0.00 | 0.00 | 0.00 | 55 | 1008.6 |
| 20260904094507 | 57 | 46 | 0.0 | 0.0 | 0.00 | 0.00 | 0.00 | 54 | 1008.7 |
| 20260904093112 | 58 | 83 | 0.0 | 0.0 | 0.00 | 0.00 | 0.00 | 54 | 1008.8 |
| 20260904091614 | 59 | 73 | 0.0 | 0.0 | 0.00 | 0.00 | 0.00 | 52 | 1008.5 |
| 20260904090059 | 59 | 86 | 0.0 | 10.0 | 0.00 | 0.00 | 0.00 | 50 | 1008.7 |
| 20260904084556 | 59 | 89 | 0.0 | 5.0 | 0.00 | 0.00 | 0.00 | 51 | 1008.9 |
| 20260904083053 | 58 | 120 | 0.0 | 3.0 | 0.00 | 0.00 | 0.00 | 60 | 1009.1 |
| 20260904081551 | 59 | 138 | 0.0 | 1.0 | 0.00 | 0.00 | 0.00 | 56 | 1009.4 |
| 20260904080048 | 59 | 121 | 0.0 | 1.0 | 0.00 | 0.00 | 0.00 | 53 | 1009.5 |
| 20260904074549 | 59 | 130 | 0.0 | 0.0 | 0.00 | 0.00 | 0.00 | 51 | 1009.7 |
| 20260904073050 | 60 | 77 | 0.0 | 0.0 | 0.00 | 0.00 | 0.00 | 50 | 1009.8 |
| 20260904071544 | 61 | 46 | 0.0 | 0.0 | 0.00 | 0.00 | 0.00 | 48 | 1009.9 |
| 20260904070043 | 60 | 49 | 0.0 | 0.0 | 0.00 | 0.00 | 0.00 | 48 | 1010.1 |
| 20260904064542 | 59 | 44 | 0.0 | 5.0 | 0.00 | 0.00 | 0.00 | 52 | 1010.1 |
| 20260904063039 | 59 | 15 | 3.0 | 5.0 | 0.00 | 0.00 | 0.00 | 50 | 1010.0 |
| 20260904061536 | 60 | 352 | 4.0 | 6.0 | 0.00 | 0.00 | 0.00 | 50 | 1010.0 |
| 20260904060051 | 61 | 36 | 4.0 | 7.0 | 0.00 | 0.00 | 0.00 | 48 | 1010.0 |
| 20260904054548 | 61 | 39 | 4.0 | 7.0 | 0.00 | 0.00 | 0.00 | 48 | 1010.2 |
| 20260904053041 | 60 | 46 | 4.0 | 6.0 | 0.00 | 0.00 | 0.00 | 49 | 1010.3 |
| 20260904051535 | 60 | 39 | 5.0 | 9.0 | 0.00 | 0.00 | 0.00 | 49 | 1010.6 |
| 20260904050036 | 61 | 38 | 6.0 | 9.0 | 0.00 | 0.00 | 0.00 | 47 | 1010.8 |
| 20260904044529 | 61 | 61 | 3.0 | 6.0 | 0.00 | 0.00 | 0.00 | 47 | 1011.0 |
| 20260904043040 | 61 | 56 | 5.0 | 8.0 | 0.00 | 0.00 | 0.00 | 47 | 1011.0 |
| 20260904041529 | 61 | 48 | 5.0 | 9.0 | 0.00 | 0.00 | 0.00 | 47 | 1010.7 |
| 20260904040034 | 61 | 60 | 4.0 | 10.0 | 0.00 | 0.00 | 0.00 | 47 | 1010.6 |
| 20260904034524 | 62 | 44 | 5.0 | 11.0 | 0.00 | 0.00 | 0.00 | 48 | 1010.5 |
| 20260904033026 | 62 | 41 | 5.0 | 9.0 | 0.00 | 0.00 | 0.00 | 46 | 1010.5 |
| 20260904031522 | 62 | 58 | 7.0 | 10.0 | 0.00 | 0.00 | 0.00 | 47 | 1010.5 |
| 20260904030021 | 63 | 36 | 6.0 | 12.0 | 0.00 | 0.00 | 0.00 | 45 | 1010.5 |
| 20260904024531 | 64 | 45 | 6.0 | 10.0 | 0.00 | 0.00 | 0.00 | 44 | 1010.3 |
| 20260904023016 | 64 | 46 | 6.0 | 10.0 | 0.00 | 0.00 | 0.00 | 44 | 1010.1 |
| 20260904021519 | 65 | 21 | 7.0 | 11.0 | 0.00 | 0.00 | 0.00 | 41 | 1009.8 |
| 20260904020012 | 67 | 20 | 6.0 | 10.0 | 0.00 | 0.00 | 0.00 | 39 | 1009.7 |
| 20260904014512 | 68 | 47 | 0.0 | 0.0 | 0.00 | 0.00 | 0.00 | 37 | 1009.6 |
| 20260904013012 | 70 | 32 | 0.0 | 11.0 | 0.00 | 0.00 | 0.00 | 35 | 1009.6 |
| 20260904011511 | 72 | 36 | 5.0 | 9.0 | 0.00 | 0.00 | 0.00 | 34 | 1009.6 |
| 20260904010011 | 72 | 4 | 5.0 | 9.0 | 0.00 | 0.00 | 0.00 | 38 | 1009.6 |
| 20260904004510 | 73 | 338 | 5.0 | 12.0 | 0.00 | 0.00 | 0.00 | 39 | 1009.5 |
| 20260904003009 | 73 | 1 | 6.0 | 10.0 | 0.00 | 0.00 | 0.00 | 37 | 1009.5 |
| 20260904001507 | 74 | 5 | 6.0 | 10.0 | 0.00 | 0.00 | 0.00 | 37 | 1009.4 |
| 20260904000006 | 75 | 325 | 3.0 | 12.0 | 0.00 | 0.00 | 0.00 | 35 | 1009.4 |
| 20260903234504 | 75 | 332 | 3.0 | 10.0 | 0.00 | 0.00 | 0.00 | 31 | 1009.2 |
| 20260903233009 | 75 | 333 | 5.0 | 10.0 | 0.00 | 0.00 | 0.00 | 32 | 1009.2 |
| 20260903231508 | 75 | 328 | 4.0 | 12.0 | 0.00 | 0.00 | 0.00 | 31 | 1009.1 |
| 20260903230004 | 75 | 306 | 7.0 | 13.0 | 0.00 | 0.00 | 0.00 | 33 | 1009.1 |
| 20260903224501 | 75 | 289 | 12.0 | 21.0 | 0.00 | 0.00 | 0.00 | 28 | 1009.1 |
| 20260903223113 | 75 | 293 | 12.0 | 21.0 | 0.00 | 0.00 | 0.00 | 31 | 1009.0 |
| 20260903223002 | 75 | 272 | 13.0 | 21.0 | 0.00 | 0.00 | 0.00 | 32 | 1008.9 |
| 20260903221601 | 75 | 285 | 14.0 | 21.0 | 0.00 | 0.00 | 0.00 | 34 | 1008.9 |
| 20260903220058 | 75 | 287 | 10.0 | 20.0 | 0.00 | 0.00 | 0.00 | 32 | 1008.6 |
| 20260903214556 | 75 | 277 | 17.0 | 23.0 | 0.00 | 0.00 | 0.00 | 33 | 1008.6 |
| 20260903213055 | 74 | 275 | 10.0 | 18.0 | 0.00 | 0.00 | 0.00 | 35 | 1008.5 |
| 20260903211607 | 75 | 279 | 8.0 | 12.0 | 0.00 | 0.00 | 0.00 | 34 | 1008.5 |
| 20260903210053 | 74 | 266 | 0.0 | 7.0 | 0.00 | 0.00 | 0.00 | 34 | 1008.5 |
| 20260903204555 | 74 | 264 | 0.0 | 6.0 | 0.00 | 0.00 | 0.00 | 31 | 1008.5 |
| 20260903203051 | 74 | 272 | 0.0 | 7.0 | 0.00 | 0.00 | 0.00 | 31 | 1008.5 |
| 20260903201549 | 73 | 282 | 0.0 | 11.0 | 0.00 | 0.00 | 0.00 | 31 | 1008.5 |
| 20260903200046 | 73 | 274 | 0.0 | 7.0 | 0.00 | 0.00 | 0.00 | 33 | 1008.5 |
| 20260903194546 | 73 | 285 | 0.0 | 5.0 | 0.00 | 0.00 | 0.00 | 33 | 1008.6 |
| 20260903193044 | 73 | 265 | 0.0 | 0.0 | 0.00 | 0.00 | 0.00 | 34 | 1008.6 |
| 20260903191542 | 73 | 246 | 1.0 | 16.0 | 0.00 | 0.00 | 0.00 | 36 | 1008.6 |
| 20260903190038 | 72 | 243 | 0.0 | 1.0 | 0.00 | 0.00 | 0.00 | 38 | 1008.7 |
| 20260903184547 | 72 | 244 | 0.0 | 12.0 | 0.00 | 0.00 | 0.00 | 36 | 1008.6 |
| 20260903183035 | 71 | 274 | 6.0 | 18.0 | 0.00 | 0.00 | 0.00 | 37 | 1008.7 |
| 20260903181534 | 71 | 261 | 0.0 | 0.0 | 0.00 | 0.00 | 0.00 | 36 | 1008.6 |
| 20260903180036 | 70 | 284 | 0.0 | 0.0 | 0.00 | 0.00 | 0.00 | 37 | 1008.7 |
| 20260903174536 | 70 | 263 | 0.0 | 0.0 | 0.00 | 0.00 | 0.00 | 34 | 1008.8 |
| 20260903173036 | 70 | 283 | 0.0 | 0.0 | 0.00 | 0.00 | 0.00 | 40 | 1008.9 |
| 20260903171528 | 69 | 275 | 0.0 | 0.0 | 0.00 | 0.00 | 0.00 | 38 | 1008.8 |
| 20260903170030 | 69 | 232 | 0.0 | 0.0 | 0.00 | 0.00 | 0.00 | 38 | 1008.9 |
| 20260903164523 | 69 | 274 | 0.0 | 0.0 | 0.00 | 0.00 | 0.00 | 41 | 1008.9 |
| 20260903163023 | 67 | 243 | 0.0 | 0.0 | 0.00 | 0.00 | 0.00 | 50 | 1008.9 |
| 20260903161515 | 64 | 264 | 0.0 | 0.0 | 0.00 | 0.00 | 0.00 | 53 | 1008.8 |
| 20260903160011 | 62 | 278 | 0.0 | 0.0 | 0.00 | 0.00 | 0.00 | 55 | 1008.9 |
| 20260903154506 | 60 | 240 | 0.0 | 0.0 | 0.00 | 0.00 | 0.00 | 60 | 1009.1 |
| 20260903153001 | 58 | 276 | 0.0 | 0.0 | 0.00 | 0.00 | 0.00 | 65 | 1009.1 |
| 20260903151558 | 56 | 281 | 0.0 | 0.0 | 0.00 | 0.00 | 0.00 | 66 | 1009.1 |
| 20260903150057 | 55 | 277 | 0.0 | 0.0 | 0.00 | 0.00 | 0.00 | 68 | 1009.1 |
| 20260903144601 | 55 | 266 | 0.0 | 0.0 | 0.00 | 0.00 | 0.00 | 68 | 1009.1 |
| 20260903143105 | 55 | 271 | 0.0 | 0.0 | 0.00 | 0.00 | 0.00 | 70 | 1009.2 |
| 20260903141556 | 54 | 263 | 0.0 | 0.0 | 0.00 | 0.00 | 0.00 | 72 | 1009.2 |
| 20260903140053 | 53 | 276 | 0.0 | 0.0 | 0.00 | 0.00 | 0.00 | 73 | 1009.1 |
| 20260903134556 | 52 | 274 | 0.0 | 0.0 | 0.00 | 0.00 | 0.00 | 76 | 1008.9 |
| 20260903133104 | 52 | 280 | 0.0 | 0.0 | 0.00 | 0.00 | 0.00 | 75 | 1008.6 |
| 20260903131547 | 52 | 266 | 2.0 | 8.0 | 0.00 | 0.00 | 0.00 | 74 | 1008.4 |
| 20260903130059 | 50 | 270 | 0.0 | 4.0 | 0.00 | 0.00 | 0.00 | 77 | 1008.2 |
| 20260903124554 | 49 | 305 | 0.0 | 0.0 | 0.00 | 0.00 | 0.00 | 75 | 1008.4 |
| 20260903123046 | 50 | 300 | 0.0 | 0.0 | 0.00 | 0.00 | 0.00 | 73 | 1008.3 |
| 20260903121539 | 51 | 273 | 0.0 | 1.0 | 0.00 | 0.00 | 0.00 | 70 | 1008.2 |
| 20260903120035 | 52 | 288 | 2.0 | 6.0 | 0.00 | 0.00 | 0.00 | 67 | 1008.2 |
| 20260903114537 | 52 | 255 | 2.0 | 4.0 | 0.00 | 0.00 | 0.00 | 68 | 1008.1 |
| 20260903113033 | 52 | 285 | 0.0 | 2.0 | 0.00 | 0.00 | 0.00 | 67 | 1008.1 |
| 20260903111535 | 52 | 44 | 0.0 | 1.0 | 0.00 | 0.00 | 0.00 | 68 | 1008.2 |